Content
SEND FEEDBACK

Daily
Averages
Monthly
Summary
United States of America

RIMROCK, ARIZONA


Home > North America > United States > Arizona
Elevation: 3830 feet     Latitude: 34 40N     Longitude: 111 43W

WEATHER
 
SELECT A DAY
Number of Records: 130,139;   Date Range: 1/4/95 - 7/23/14
 
SHARE

PRINT THIS DATA

[ ← Previous Day ]
WEATHER ALMANAC - APRIL 7, 2014
[ Next Day → ]
[ °C ]   °F
Weather ElementAverageHighLow
Temperature62.4 °F75.2 °F (12:35 pm)48.2 °F (4:35 am)
Dewpoint19.2 °F23 °F (7:15 am)15.8 °F (10:35 pm)
Humidity20 %32 % (4:35 am)13 % (12:35 pm)
Barometer30.20 in30.27 in (11:35 pm)30.12 in (12:35 am)
Wind Speed6.5 mph15 mph (9:35 pm)
Wind Gust34.5 mph (12:15 pm)
Weather ElementAverage
Visibility10 mi
Wind DirectionESE (105.7 °)

Weather ElementTotal
Precipitation---
Heating Degree Days3.3 (Base 65)
Growing Degree Days11.7 (Base 50)
Averaged from 70 records on April 7, 2014
WEATHER CONDITIONS BREAKOUT
WIND DIRECTION BREAKOUT
WEATHER BY HOUR - APRIL 7, 2014
[ °C ]   °F
Local TimeTemperatureDewpointHumidityBarometerVisibilityWind DirectionWind SpeedGust SpeedPrecipitationEventsConditions
12:35 AM53.6 °F19.4 °F26 %30.12 in10.0 miCalmClear
12:55 AM53.6 °F17.6 °F24 %30.12 in10.0 miWest (280°)3.5 mphClear
1:15 AM51.8 °F17.6 °F26 %30.12 in10.0 miCalmClear
1:35 AM53.6 °F17.6 °F24 %30.13 in10.0 miENE (60°)3.5 mphClear
1:55 AM53.6 °F17.6 °F24 %30.13 in10.0 miCalmClear
2:15 AM53.6 °F17.6 °F24 %30.14 in10.0 miEast (90°)3.5 mphClear
2:35 AM53.6 °F17.6 °F24 %30.13 in10.0 miENE (60°)5.8 mphClear
2:55 AM51.8 °F17.6 °F26 %30.14 in10.0 miNorth (350°)4.6 mphClear
3:15 AM53.6 °F17.6 °F24 %30.14 in10.0 miCalmClear
3:35 AM50.0 °F17.6 °F28 %30.14 in10.0 miCalmClear
3:55 AM51.8 °F17.6 °F26 %30.13 in10.0 miCalmClear
4:15 AM50.0 °F19.4 °F30 %30.14 in10.0 miNE (50°)4.6 mphClear
4:35 AM48.2 °F19.4 °F32 %30.15 in10.0 miNE (50°)8.1 mphClear
4:55 AM50.0 °F19.4 °F30 %30.15 in10.0 miENE (70°)5.8 mphClear
5:15 AM50.0 °F19.4 °F30 %30.16 in10.0 miENE (60°)3.5 mphClear
5:35 AM50.0 °F21.2 °F32 %30.16 in10.0 miNE (50°)3.5 mphClear
5:55 AM50.0 °F21.2 °F32 %30.18 in10.0 miCalmClear
6:15 AM50.0 °F21.2 °F32 %30.19 in10.0 miENE (60°)5.8 mphClear
6:35 AM50.0 °F21.2 °F32 %30.20 in10.0 miENE (70°)4.6 mphClear
6:55 AM51.8 °F21.2 °F30 %30.21 in10.0 miEast (80°)4.6 mphClear
7:15 AM53.6 °F23.0 °F30 %30.21 in10.0 miEast (90°)4.6 mphClear
7:55 AM55.4 °F23.0 °F29 %30.22 in10.0 miEast (100°)4.6 mphClear
8:15 AM57.2 °F23.0 °F27 %30.23 in10.0 miCalmClear
8:35 AM57.2 °F23.0 °F27 %30.23 in10.0 miWNW (300°)3.5 mphClear
8:55 AM59.0 °F23.0 °F25 %30.23 in10.0 miCalmClear
9:15 AM60.8 °F23.0 °F23 %30.25 in10.0 miSE (130°)4.6 mphClear
9:35 AM62.6 °F21.2 °F20 %30.25 in10.0 miNNE (20°)9.2 mph18.4 mphClear
9:55 AM66.2 °F21.2 °F18 %30.25 in10.0 miEast (100°)11.5 mph20.7 mphClear
10:15 AM68.0 °F19.4 °F16 %30.25 in10.0 miESE (120°)11.5 mph18.4 mphClear
10:35 AM64.4 °F19.4 °F18 %30.25 in10.0 miENE (60°)5.8 mphClear
10:55 AM69.8 °F19.4 °F15 %30.25 in10.0 miEast (80°)11.5 mph20.7 mphClear
11:15 AM69.8 °F19.4 °F15 %30.24 in10.0 miEast (100°)10.4 mph18.4 mphClear
11:35 AM69.8 °F19.4 °F15 %30.24 in10.0 miEast (80°)9.2 mphClear
11:55 AM71.6 °F19.4 °F14 %30.24 in10.0 miSE (140°)8.1 mphClear
12:15 PM71.6 °F19.4 °F14 %30.24 in10.0 miESE (110°)6.9 mph34.5 mphClear
12:35 PM75.2 °F21.2 °F13 %30.23 in10.0 miSSE (160°)9.2 mph19.6 mphClear
12:55 PM71.6 °F19.4 °F14 %30.23 in10.0 miSW (220°)11.5 mph16.1 mphClear
1:15 PM71.6 °F19.4 °F14 %30.22 in10.0 miSSW (210°)10.4 mphClear
1:35 PM75.2 °F21.2 °F13 %30.22 in10.0 miSSE (160°)6.9 mphClear
1:55 PM71.6 °F19.4 °F14 %30.21 in10.0 miWest (270°)3.5 mphClear
2:15 PM73.4 °F21.2 °F14 %30.21 in10.0 miWSW (240°)6.9 mph17.3 mphClear
2:35 PM71.6 °F19.4 °F14 %30.21 in10.0 miWNW (290°)5.8 mphClear
2:55 PM73.4 °F21.2 °F14 %30.20 in10.0 miWNW (300°)8.1 mphClear
3:15 PM73.4 °F21.2 °F14 %30.20 in10.0 miWNW (290°)9.2 mph16.1 mphClear
3:35 PM75.2 °F21.2 °F13 %30.19 in10.0 miSouth (180°)8.1 mphClear
3:55 PM73.4 °F21.2 °F14 %30.19 in10.0 miSSW (210°)3.5 mphClear
4:15 PM73.4 °F19.4 °F13 %30.19 in10.0 miWNW (290°)9.2 mphClear
4:35 PM73.4 °F19.4 °F13 %30.19 in10.0 miCalmClear
4:55 PM73.4 °F19.4 °F13 %30.19 in10.0 miSW (220°)4.6 mphClear
5:15 PM71.6 °F19.4 °F14 %30.19 in10.0 miSouth (190°)5.8 mphClear
5:35 PM71.6 °F17.6 °F13 %30.19 in10.0 miSSW (210°)3.5 mphClear
5:55 PM71.6 °F17.6 °F13 %30.19 in10.0 miESE (120°)3.5 mphClear
6:15 PM71.6 °F17.6 °F13 %30.19 in10.0 miCalmClear
6:35 PM69.8 °F17.6 °F14 %30.20 in10.0 miSE (140°)3.5 mphClear
6:55 PM68.0 °F17.6 °F15 %30.20 in10.0 miCalmClear
7:15 PM68.0 °F17.6 °F15 %30.20 in10.0 miSouth (170°)3.5 mphClear
7:35 PM66.2 °F17.6 °F15 %30.21 in10.0 miEast (90°)8.1 mphClear
7:55 PM64.4 °F17.6 °F16 %30.21 in10.0 miENE (60°)11.5 mph17.3 mphClear
8:15 PM64.4 °F17.6 °F16 %30.22 in10.0 miENE (60°)11.5 mphClear
8:35 PM62.6 °F17.6 °F18 %30.23 in10.0 miNE (50°)12.7 mph17.3 mphClear
8:55 PM62.6 °F17.6 °F18 %30.23 in10.0 miNE (50°)11.5 mphClear
9:15 PM62.6 °F17.6 °F18 %30.24 in10.0 miNE (50°)13.8 mphClear
9:35 PM62.6 °F17.6 °F18 %30.24 in10.0 miNE (50°)15.0 mph20.7 mphClear
9:55 PM60.8 °F17.6 °F19 %30.25 in10.0 miNE (50°)15.0 mph21.9 mphClear
10:15 PM60.8 °F17.6 °F19 %30.25 in10.0 miNE (50°)13.8 mphClear
10:35 PM60.8 °F15.8 °F17 %30.25 in10.0 miNE (50°)12.7 mphClear
10:55 PM60.8 °F15.8 °F17 %30.26 in10.0 miENE (60°)12.7 mphClear
11:15 PM60.8 °F15.8 °F17 %30.26 in10.0 miENE (60°)11.5 mphClear
11:35 PM59.0 °F15.8 °F19 %30.27 in10.0 miNE (50°)11.5 mphClear
11:55 PM57.2 °F17.6 °F21 %30.27 in10.0 miNE (40°)13.8 mphClear
Hourly data recorded from KSEZ, located miles away from Rimrock, Arizona







STORIES FROM OUR PARTNERS